Wind_Speed
39 38 40 41 41 41 43 44 46 47 47 43 43 43 42 43 44 45 44 45 46 46 46 47 48 48 49 49 50 51 51 50 49 49 49 48 49 49 49 48 48 48 48 48
41 39 41 42 41 41 43 44 46 46 45 42 43 43 42 42 44 45 45 45 46 46 46 46 48 48 49 50 51 52 52 51 51 50 49 49 49 49 50 50 49 49 50 49
42 41 42 42 39 40 42 43 44 45 43 42 44 43 43 43 44 44 45 47 48 48 47 47 48 48 49 49 51 51 52 53 52 51 51 50 51 51 51 51 51 52 51 51
42 42 44 39 38 39 40 40 41 44 43 45 46 46 46 45 46 46 46 47 48 48 48 48 49 50 51 51 51 51 52 52 51 51 52 52 53 53 53 53 53 53 53 52
43 44 44 39 37 38 40 40 39 41 43 44 46 48 47 46 47 47 47 47 48 48 49 49 50 51 51 52 52 51 50 51 51 51 52 53 53 53 53 54 53 52 52 52
43 44 44 39 36 37 40 40 37 40 42 43 45 47 45 45 46 46 47 47 48 48 49 49 50 51 51 51 53 52 51 51 51 51 51 52 53 53 54 54 54 53 52 52
43 44 43 39 37 38 40 38 37 40 42 42 43 44 44 44 44 44 44 46 47 48 48 48 50 50 51 51 51 51 50 51 51 51 52 52 53 53 53 53 54 53 53 52
41 43 41 38 39 39 39 38 38 38 40 41 42 42 43 43 42 43 43 44 45 46 47 47 48 49 50 50 51 51 50 50 50 50 51 52 52 52 52 53 53 53 53 52
39 40 38 38 38 38 38 38 37 38 39 40 41 41 41 41 42 42 42 42 43 45 46 47 48 48 48 49 50 50 49 49 49 50 50 50 51 51 51 51 52 52 52 51
38 36 36 37 38 38 38 38 37 38 39 40 41 42 42 42 42 42 42 42 42 44 46 46 46 46 46 47 47 48 49 48 48 49 49 49 50 50 50 50 50 50 50 50
37 35 36 36 37 38 39 40 39 38 39 40 40 41 41 41 41 42 42 43 43 44 44 45 45 46 46 47 47 47 48 49 49 49 49 49 49 49 50 51 51 50 50 49
37 36 38 36 37 39 39 40 40 40 40 40 40 41 41 41 41 41 41 41 42 43 43 43 44 45 45 46 46 47 48 48 48 48 49 49 49 49 49 50 50 50 50 49
38 38 39 38 38 38 38 38 39 40 41 41 41 41 41 41 40 40 40 40 40 40 41 42 42 43 43 43 43 44 45 46 47 47 47 47 47 48 48 48 49 49 48 47
39 39 39 38 38 38 39 39 40 40 40 40 41 41 41 40 40 40 40 40 39 39 40 40 41 42 42 42 42 42 43 43 45 45 45 45 45 45 46 45 45 45 45 45
38 39 40 40 39 39 39 39 38 38 39 39 40 40 40 40 40 40 41 41 40 40 39 40 39 40 41 41 41 41 41 41 41 41 42 42 42 43 43 42 42 41 42 42
37 38 39 38 38 38 39 38 37 37 37 38 39 39 40 40 39 39 40 41 41 40 39 39 40 40 39 40 40 40 40 39 39 40 40 40 40 40 40 40 39 40 40 41
35 36 37 37 37 37 38 38 37 36 36 37 38 38 38 38 38 38 39 39 39 40 39 39 39 40 40 40 40 40 40 39 39 39 38 39 39 39 39 39 39 40 40 40
34 34 35 35 35 35 35 36 36 36 36 36 37 38 37 38 38 38 39 39 39 39 39 39 39 39 39 38 38 39 38 38 37 37 38 38 38 38 38 38 39 38 38 38
33 33 33 33 33 34 34 35 35 35 35 35 35 36 36 37 37 37 37 38 37 37 37 38 37 37 37 37 37 37 37 37 37 37 37 37 37 37 37 37 37 37 37 37
32 31 31 31 31 32 32 33 33 33 34 34 34 35 35 35 35 35 36 36 35 35 35 35 35 36 36 36 36 37 37 37 37 37 36 36 36 36 36 35 35 35 35 36
30 30 30 30 30 31 31 32 32 33 34 34 35 34 34 33 33 33 33 32 32 33 33 33 33 33 33 33 34 34 34 34 34 34 34 34 33 33 34 34 34 34 34 33
28 28 29 29 30 30 31 31 32 32 32 32 33 33 32 31 31 31 31 30 30 30 30 31 31 30 30 30 31 31 31 31 31 31 31 32 32 32 32 32 32 31 31 31
29 28 28 28 28 29 29 30 30 30 30 30 30 30 29 28 28 29 29 29 28 28 28 29 29 28 28 28 28 29 29 29 29 29 29 29 29 29 29 28 28 28 29 29
28 28 28 27 28 28 28 29 29 29 29 29 28 27 27 27 27 27 27 26 26 26 25 25 26 26 26 26 26 27 27 27 26 26 26 26 27 27 27 27 27 26 26 27
28 28 28 28 28 28 28 28 28 28 28 27 26 25 24 24 24 24 24 23 23 22 22 22 23 24 24 24 24 25 25 24 24 24 24 25 25 25 25 25 25 25 25 25
27 27 27 27 26 26 26 26 26 26 25 24 23 23 23 22 22 22 22 21 21 21 21 21 22 22 22 22 22 22 22 22 23 23 23 22 22 22 22 22 23 23 24 25
27 26 26 26 26 26 26 26 25 24 23 22 21 21 21 21 21 20 20 20 19 19 19 19 20 20 20 20 20 20 20 20 20 20 20 20 20 20 20 21 22 23 24 25
Wind_Direction
263 263 263 261 260 258 258 258 260 260 260 259 260 261 260 259 258 257 256 254 252 251 250 249 249 250 250 249 250 250 251 252 254 255 255 256 257 258 260 262 265 267 269 271
263 263 262 261 262 262 261 260 261 261 259 259 261 261 260 259 258 257 256 255 253 251 250 249 248 249 250 250 250 250 252 253 254 256 257 258 259 259 261 263 265 267 268 271
265 264 263 262 263 265 266 264 263 263 261 259 260 261 259 259 258 257 255 254 253 252 252 252 251 250 250 250 251 252 253 253 254 256 258 259 260 262 263 264 265 267 268 270
268 265 264 268 268 268 268 267 266 264 262 261 260 260 259 258 258 257 256 255 254 254 252 252 252 251 251 250 250 251 252 253 254 255 257 259 261 262 263 265 266 267 269 270
268 268 269 268 270 272 271 268 267 266 264 263 261 260 259 258 258 257 256 256 255 255 253 252 252 251 251 251 250 250 252 253 254 256 258 260 262 263 264 265 267 268 269 270
269 270 271 271 272 273 272 269 267 266 265 263 262 262 260 260 260 259 258 257 256 254 253 252 250 251 251 252 252 252 253 254 255 257 259 260 262 263 264 265 266 267 268 269
270 270 271 273 275 273 271 270 268 266 265 264 264 264 263 262 262 261 260 259 258 256 255 253 252 252 253 253 254 254 254 255 256 258 260 260 262 263 264 265 266 266 268 269
271 270 272 273 272 271 271 270 268 267 266 265 264 264 264 263 263 262 262 261 259 258 256 255 253 253 254 255 255 255 256 257 257 258 259 260 261 262 264 265 266 267 268 269
273 272 273 272 271 271 271 270 270 270 268 267 266 266 266 265 263 262 262 262 261 259 258 257 256 255 256 256 256 257 257 258 259 259 259 260 261 262 264 266 267 267 268 269
274 274 272 271 269 269 270 269 269 269 268 266 267 267 267 266 265 264 263 263 263 261 260 259 257 256 256 256 257 257 257 257 258 259 260 261 261 262 264 266 267 268 269 270
273 273 271 269 267 267 269 269 269 270 270 269 269 267 265 265 264 264 264 264 263 262 261 260 258 257 256 257 257 257 257 257 258 260 261 262 262 263 264 265 266 268 269 269
272 271 269 268 267 268 269 269 269 270 270 269 269 267 266 265 264 264 266 266 266 265 262 261 259 259 258 258 259 258 258 258 258 260 261 261 262 263 264 265 267 268 269 269
271 270 268 266 267 269 270 269 269 269 269 269 269 268 268 267 267 267 267 267 267 266 264 262 260 260 259 259 259 259 258 259 259 260 261 261 262 263 265 266 266 267 268 269
270 270 268 267 267 268 269 269 270 270 270 270 270 268 267 267 266 267 268 267 266 266 265 263 262 261 260 259 259 259 259 260 260 260 261 261 262 263 265 265 265 267 268 269
271 271 271 269 268 268 269 270 271 271 270 269 269 269 269 268 267 266 266 266 266 266 266 264 262 261 259 259 260 260 260 260 260 261 262 262 262 264 265 266 266 268 269 270
273 273 273 272 270 269 270 270 271 271 269 269 269 268 268 268 268 267 266 266 265 264 263 263 261 259 258 258 260 260 259 259 259 261 263 264 264 264 265 267 267 269 271 272
276 274 273 272 270 269 270 270 270 271 270 269 268 268 268 268 268 267 267 266 264 263 262 262 261 259 257 257 258 259 259 259 261 262 263 264 264 265 266 267 269 271 272 272
278 276 274 272 271 270 269 270 270 270 272 272 271 269 268 267 267 268 268 267 266 264 263 262 261 259 257 258 258 258 258 258 259 260 262 264 265 267 268 269 270 270 272 273
280 278 275 274 273 271 270 269 270 272 273 273 272 271 270 270 269 269 268 268 266 263 262 262 261 260 259 259 259 258 258 258 259 261 263 265 267 267 268 270 270 270 272 273
281 279 277 275 274 272 270 270 271 272 272 273 272 272 272 271 271 269 269 268 266 263 261 261 262 261 260 259 258 258 259 258 259 261 262 264 265 266 267 269 269 269 271 272
281 279 278 276 274 273 273 272 272 273 273 274 274 275 274 272 271 271 271 268 264 261 260 261 262 262 260 258 258 258 258 257 258 259 260 262 264 265 267 269 269 269 269 270
281 280 279 278 276 276 275 274 274 275 276 276 276 276 275 273 271 270 270 268 263 261 261 261 261 260 258 257 257 257 257 256 258 259 259 260 262 264 266 268 269 268 268 268
281 281 280 279 279 279 278 277 276 277 278 278 276 275 273 272 271 269 269 267 265 264 262 261 259 257 255 255 256 257 256 256 255 257 258 259 260 263 265 267 267 267 267 268
281 281 281 281 281 281 279 279 278 278 278 277 276 274 272 271 271 270 270 268 266 265 263 259 257 255 255 256 256 256 257 255 254 254 255 256 258 260 262 265 266 267 268 270
281 282 281 280 281 281 280 281 280 279 278 277 275 273 272 272 271 270 271 269 267 265 262 259 257 257 256 256 256 255 254 253 252 253 256 259 260 261 263 266 266 267 268 270
282 282 281 280 281 280 280 280 281 281 278 276 274 272 272 273 272 271 270 267 265 264 263 261 258 256 255 255 255 254 252 251 252 255 257 259 261 262 264 266 266 267 269 273
283 282 282 281 281 280 280 279 278 277 275 273 271 270 270 271 269 268 267 265 263 262 262 260 258 255 253 252 252 253 253 255 256 258 260 262 264 265 265 266 268 271 274 277
Height
5579 5580 5579 5580 5581 5582 5582 5583 5583 5587 5590 5597 5598 5598 5600 5601 5602 5604 5606 5609 5612 5615 5617 5620 5623 5626 5629 5632 5635 5637 5640 5643 5645 5647 5648 5650 5651 5653 5653 5654 5655 5655 5655 5655
5568 5570 5568 5567 5570 5571 5572 5573 5573 5575 5579 5586 5585 5585 5587 5589 5590 5592 5594 5596 5599 5601 5604 5607 5610 5613 5616 5619 5622 5625 5628 5631 5633 5634 5636 5637 5639 5640 5641 5642 5642 5642 5643 5643
5557 5558 5555 5557 5563 5562 5562 5563 5564 5564 5571 5574 5573 5573 5574 5576 5577 5579 5581 5583 5586 5588 5591 5595 5597 5600 5603 5606 5609 5612 5615 5618 5620 5621 5623 5624 5626 5627 5628 5629 5629 5629 5630 5630
5546 5546 5544 5552 5552 5552 5551 5553 5554 5555 5558 5560 5560 5560 5561 5564 5565 5566 5568 5570 5572 5575 5578 5581 5584 5587 5589 5592 5595 5598 5601 5604 5606 5608 5610 5611 5612 5614 5615 5615 5616 5616 5617 5617
5535 5533 5533 5541 5543 5542 5540 5542 5545 5544 5545 5546 5546 5546 5550 5552 5551 5552 5555 5557 5559 5562 5565 5568 5571 5573 5576 5579 5582 5585 5588 5590 5592 5594 5596 5598 5599 5601 5601 5602 5602 5603 5603 5603
5525 5523 5523 5532 5534 5531 5530 5531 5535 5532 5532 5533 5532 5533 5539 5539 5538 5540 5542 5543 5546 5548 5551 5554 5557 5559 5562 5565 5568 5571 5574 5576 5578 5580 5582 5584 5586 5586 5587 5588 5589 5589 5589 5589
5515 5512 5514 5522 5523 5520 5520 5523 5522 5520 5520 5520 5520 5522 5524 5525 5526 5527 5529 5531 5533 5535 5538 5541 5543 5546 5549 5552 5555 5557 5559 5561 5564 5566 5568 5569 5571 5572 5573 5573 5574 5575 5575 5576
5506 5504 5509 5513 5511 5510 5510 5510 5509 5508 5508 5508 5509 5510 5511 5512 5514 5515 5517 5519 5520 5522 5525 5528 5530 5532 5536 5539 5541 5543 5545 5547 5549 5551 5553 5555 5556 5557 5558 5559 5559 5560 5561 5562
5497 5499 5501 5500 5499 5498 5498 5498 5498 5497 5497 5497 5497 5498 5500 5501 5502 5503 5504 5506 5508 5509 5512 5514 5516 5519 5522 5524 5526 5528 5531 5533 5535 5537 5539 5540 5542 5543 5544 5545 5545 5546 5547 5547
5486 5488 5489 5489 5488 5487 5487 5486 5486 5486 5486 5486 5486 5487 5488 5489 5490 5491 5492 5493 5495 5497 5499 5501 5503 5505 5508 5510 5512 5514 5517 5520 5522 5524 5525 5526 5528 5529 5530 5531 5532 5532 5533 5533
5476 5479 5478 5478 5477 5476 5476 5475 5475 5475 5475 5475 5475 5475 5476 5477 5478 5479 5480 5481 5482 5483 5485 5487 5489 5492 5494 5496 5498 5500 5503 5506 5508 5510 5511 5513 5514 5515 5516 5517 5517 5518 5518 5518
5466 5468 5465 5466 5466 5465 5464 5464 5464 5464 5464 5464 5463 5463 5464 5465 5466 5466 5467 5468 5469 5471 5472 5474 5476 5478 5480 5482 5484 5487 5489 5492 5494 5495 5497 5498 5500 5501 5501 5503 5503 5503 5503 5504
5455 5454 5453 5453 5454 5454 5453 5453 5452 5452 5451 5451 5452 5451 5452 5453 5453 5454 5455 5456 5457 5459 5460 5461 5463 5465 5467 5469 5471 5474 5476 5478 5480 5481 5483 5484 5485 5487 5488 5488 5488 5488 5489 5489
5442 5441 5441 5442 5442 5442 5441 5441 5441 5441 5440 5440 5440 5440 5440 5441 5442 5443 5443 5444 5445 5447 5448 5449 5450 5452 5454 5456 5459 5461 5463 5464 5466 5468 5469 5471 5472 5473 5474 5474 5475 5475 5476 5476
5431 5429 5429 5430 5430 5430 5430 5430 5430 5429 5429 5429 5428 5428 5429 5429 5430 5431 5431 5432 5433 5435 5436 5437 5438 5440 5442 5444 5446 5448 5450 5452 5453 5455 5457 5458 5460 5461 5461 5462 5463 5463 5463 5463
5420 5419 5418 5418 5419 5419 5419 5419 5418 5418 5418 5418 5417 5417 5417 5417 5418 5419 5419 5420 5421 5423 5424 5425 5426 5428 5430 5432 5434 5436 5438 5440 5441 5444 5445 5446 5447 5448 5449 5450 5451 5451 5451 5452
5409 5408 5407 5407 5408 5408 5407 5407 5407 5407 5406 5406 5406 5406 5406 5406 5406 5407 5407 5408 5409 5410 5411 5413 5414 5416 5418 5420 5422 5424 5426 5428 5430 5432 5433 5434 5436 5437 5437 5438 5439 5439 5439 5439
5399 5398 5397 5397 5396 5396 5396 5396 5396 5396 5395 5395 5394 5394 5394 5395 5395 5395 5395 5395 5396 5398 5399 5401 5402 5404 5406 5408 5410 5412 5414 5416 5418 5420 5422 5423 5424 5425 5426 5426 5427 5428 5428 5427
5389 5388 5387 5386 5386 5385 5386 5385 5385 5385 5384 5383 5383 5383 5383 5383 5383 5383 5383 5384 5385 5387 5388 5389 5390 5392 5394 5396 5398 5401 5402 5404 5406 5408 5410 5411 5412 5413 5415 5415 5416 5416 5416 5416
5379 5378 5377 5376 5376 5375 5375 5375 5375 5374 5374 5373 5372 5372 5372 5371 5371 5371 5372 5373 5373 5375 5376 5378 5379 5381 5382 5384 5386 5388 5391 5393 5395 5397 5399 5400 5401 5402 5403 5404 5405 5405 5405 5405
5371 5369 5368 5367 5367 5366 5365 5365 5365 5364 5363 5362 5362 5361 5361 5360 5361 5361 5361 5362 5363 5364 5366 5367 5368 5370 5371 5373 5375 5377 5379 5381 5384 5386 5388 5389 5390 5392 5393 5394 5394 5394 5395 5395
5362 5361 5360 5358 5358 5357 5356 5355 5355 5354 5353 5352 5352 5351 5350 5350 5351 5351 5351 5352 5353 5354 5356 5357 5358 5360 5361 5363 5365 5367 5369 5371 5373 5375 5377 5379 5380 5382 5383 5383 5384 5384 5384 5385
5354 5353 5351 5350 5349 5348 5347 5346 5345 5345 5344 5343 5342 5342 5341 5341 5342 5342 5343 5343 5344 5345 5346 5347 5348 5350 5352 5354 5356 5358 5360 5362 5364 5366 5368 5369 5371 5372 5373 5373 5374 5374 5375 5375
5345 5344 5343 5342 5341 5340 5338 5337 5336 5335 5335 5334 5333 5333 5333 5333 5333 5333 5334 5334 5335 5336 5337 5338 5339 5341 5343 5346 5348 5350 5352 5353 5355 5357 5359 5360 5362 5363 5364 5364 5365 5366 5366 5366
5336 5335 5334 5333 5332 5331 5330 5329 5327 5326 5326 5325 5325 5324 5324 5325 5325 5325 5325 5326 5327 5327 5328 5329 5331 5333 5335 5337 5339 5341 5343 5345 5347 5349 5351 5352 5353 5354 5355 5356 5356 5357 5357 5358
5328 5327 5325 5324 5323 5322 5321 5320 5319 5318 5317 5317 5317 5317 5317 5317 5317 5317 5318 5318 5319 5320 5321 5322 5323 5325 5327 5329 5332 5333 5335 5337 5339 5341 5342 5344 5345 5346 5347 5348 5348 5349 5349 5349
5319 5318 5317 5316 5314 5313 5312 5312 5311 5310 5310 5310 5310 5310 5310 5310 5310 5310 5311 5311 5312 5313 5314 5315 5316 5318 5320 5322 5325 5327 5329 5330 5332 5334 5335 5336 5337 5338 5339 5340 5340 5341 5341 5341